"read_dt","SO2 (ppb)","flags","PMT voltage (V)","lamp voltage (V)","lamp intensity (Hz)","internal temp (C)","react chamber temp (C)","sample flow (l/min)","pres (mmHg)","SO2 bkg (ppb)","SO2 coefficient"
2016-03-23 00:00:00,2016E-3,5C000400,-0724,0835,12041,024.2,045.3,0.262,758.8,01.16,0.508
2016-03-23 00:01:00,1983E-3,5C000400,-0724,0836,12137,024.2,045.3,0.262,758.8,01.16,0.508
2016-03-23 00:02:00,1960E-3,5C000400,-0724,0836,12117,024.3,045.3,0.262,758.8,01.16,0.508
2016-03-23 00:03:00,2052E-3,5C000400,-0724,0836,12253,024.2,045.3,0.262,758.7,01.16,0.508
2016-03-23 00:04:00,1983E-3,5C000400,-0724,0835,12013,024.3,045.3,0.262,758.7,01.16,0.508
2016-03-23 00:05:00,1825E-3,5C000400,-0724,0836,12093,024.2,045.3,0.262,758.7,01.16,0.508
2016-03-23 00:06:00,1995E-3,5C000400,-0724,0835,12196,024.2,045.3,0.262,758.7,01.16,0.508
2016-03-23 00:07:00,1921E-3,5C000400,-0724,0835,12072,024.2,045.3,0.262,758.7,01.16,0.508
2016-03-23 00:08:00,1950E-3,5C000400,-0724,0835,12143,024.3,045.3,0.262,758.7,01.16,0.508
2016-03-23 00:09:00,1903E-3,5C000400,-0724,0835,12069,024.3,045.3,0.262,758.7,01.16,0.508
2016-03-23 00:10:00,2008E-3,5C000400,-0724,0836,12138,024.2,045.3,0.262,758.7,01.16,0.508
2016-03-23 00:11:00,1965E-3,5C000400,-0724,0836,12026,024.3,045.3,0.262,758.7,01.16,0.508
2016-03-23 00:12:00,1921E-3,5C000400,-0724,0835,12028,024.2,045.3,0.262,758.7,01.16,0.508
2016-03-23 00:13:00,1963E-3,5C000400,-0724,0836,12066,024.3,045.3,0.262,758.7,01.16,0.508
2016-03-23 00:14:00,2035E-3,5C000400,-0724,0837,12163,024.2,045.3,0.262,758.6,01.16,0.508
2016-03-23 00:15:00,2023E-3,5C000400,-0724,0836,12200,024.2,045.3,0.262,758.6,01.16,0.508
2016-03-23 00:16:00,1878E-3,5C000400,-0724,0835,12117,024.3,045.3,0.262,758.6,01.16,0.508
2016-03-23 00:17:00,1959E-3,5C000400,-0724,0835,12253,024.3,045.3,0.261,758.6,01.16,0.508
2016-03-23 00:18:00,2019E-3,5C000400,-0724,0836,12187,024.3,045.3,0.262,758.6,01.16,0.508
2016-03-23 00:19:00,2031E-3,5C000400,-0724,0835,12068,024.2,045.3,0.262,758.6,01.16,0.508
2016-03-23 00:20:00,1811E-3,5C000400,-0724,0835,12010,024.3,045.3,0.262,758.6,01.16,0.508
2016-03-23 00:21:00,1839E-3,5C000400,-0724,0835,11954,024.2,045.3,0.261,758.6,01.16,0.508
2016-03-23 00:22:00,1909E-3,5C000400,-0724,0836,12191,024.3,045.3,0.262,758.6,01.16,0.508
2016-03-23 00:23:00,2006E-3,5C000400,-0724,0837,12099,024.2,045.3,0.261,758.6,01.16,0.508
2016-03-23 00:24:00,1984E-3,5C000400,-0724,0836,12168,024.3,045.3,0.262,758.6,01.16,0.508
2016-03-23 00:25:00,1992E-3,5C000400,-0724,0836,12247,024.3,045.3,0.261,758.6,01.16,0.508
2016-03-23 00:26:00,2005E-3,5C000400,-0724,0835,12176,024.3,045.3,0.262,758.6,01.16,0.508
2016-03-23 00:27:00,2033E-3,5C000400,-0724,0836,12111,024.3,045.3,0.261,758.6,01.16,0.508
2016-03-23 00:28:00,2025E-3,5C000400,-0724,0836,12144,024.3,045.3,0.262,758.6,01.16,0.508
2016-03-23 00:29:00,2017E-3,5C000400,-0724,0836,12295,024.3,045.3,0.262,758.6,01.16,0.508
2016-03-23 00:30:00,1978E-3,5C000400,-0724,0835,12057,024.3,045.3,0.262,758.6,01.16,0.508
2016-03-23 00:31:00,2016E-3,5C000400,-0724,0836,12130,024.3,045.3,0.262,758.6,01.16,0.508
2016-03-23 00:32:00,1976E-3,5C000400,-0724,0836,12188,024.3,045.3,0.262,758.6,01.16,0.508
2016-03-23 00:33:00,1989E-3,5C000400,-0724,0836,12233,024.3,045.3,0.262,758.6,01.16,0.508
2016-03-23 00:34:00,1953E-3,5C000400,-0724,0836,12149,024.3,045.3,0.262,758.5,01.16,0.508
2016-03-23 00:35:00,1988E-3,5C000400,-0724,0835,12294,024.3,045.3,0.262,758.5,01.16,0.508
2016-03-23 00:36:00,2030E-3,5C000400,-0724,0835,12015,024.3,045.4,0.262,758.5,01.16,0.508
2016-03-23 00:37:00,2019E-3,5C000400,-0724,0836,12162,024.3,045.3,0.262,758.5,01.16,0.508
2016-03-23 00:38:00,1868E-3,5C000400,-0724,0835,12118,024.3,045.3,0.262,758.5,01.16,0.508
2016-03-23 00:39:00,2130E-3,5C000400,-0724,0835,12009,024.3,045.3,0.262,758.5,01.16,0.508
2016-03-23 00:40:00,2021E-3,5C000400,-0724,0835,12176,024.3,045.3,0.262,758.5,01.16,0.508
2016-03-23 00:41:00,2028E-3,5C000400,-0724,0836,12182,024.3,045.3,0.262,758.5,01.16,0.508
2016-03-23 00:42:00,1902E-3,5C000400,-0724,0835,12225,024.3,045.3,0.262,758.4,01.16,0.508
2016-03-23 00:43:00,2045E-3,5C000400,-0724,0836,12104,024.3,045.3,0.262,758.3,01.16,0.508
2016-03-23 00:44:00,2002E-3,5C000400,-0724,0835,11924,024.3,045.3,0.262,758.3,01.16,0.508
2016-03-23 00:45:00,1950E-3,5C000400,-0724,0836,12098,024.3,045.3,0.262,758.3,01.16,0.508
2016-03-23 00:46:00,1958E-3,5C000400,-0724,0836,12025,024.3,045.3,0.262,758.3,01.16,0.508
2016-03-23 00:47:00,1888E-3,5C000400,-0724,0835,12017,024.3,045.3,0.262,758.3,01.16,0.508
2016-03-23 00:48:00,2040E-3,5C000400,-0724,0836,12216,024.3,045.3,0.262,758.3,01.16,0.508
2016-03-23 00:49:00,2002E-3,5C000400,-0724,0836,12139,024.4,045.3,0.262,758.3,01.16,0.508
2016-03-23 00:50:00,1994E-3,5C000400,-0724,0835,11974,024.3,045.3,0.261,758.3,01.16,0.508
2016-03-23 00:51:00,1952E-3,5C000400,-0724,0835,12186,024.3,045.3,0.262,758.3,01.16,0.508
2016-03-23 00:52:00,2043E-3,5C000400,-0724,0836,12186,024.3,045.3,0.261,758.3,01.16,0.508
2016-03-23 00:53:00,1987E-3,5C000400,-0724,0836,12272,024.3,045.3,0.262,758.3,01.16,0.508
2016-03-23 00:54:00,1912E-3,5C000400,-0724,0836,12143,024.3,045.3,0.261,758.3,01.16,0.508
2016-03-23 00:55:00,1871E-3,5C000400,-0724,0835,12184,024.4,045.3,0.262,758.3,01.16,0.508
2016-03-23 00:56:00,1859E-3,5C000400,-0724,0835,12136,024.3,045.3,0.262,758.3,01.16,0.508
2016-03-23 00:57:00,1844E-3,5C000400,-0724,0836,12072,024.3,045.3,0.262,758.3,01.16,0.508
2016-03-23 00:58:00,1937E-3,5C000400,-0724,0836,12071,024.4,045.3,0.262,758.3,01.16,0.508
2016-03-23 00:59:00,1928E-3,5C000400,-0724,0835,12192,024.4,045.3,0.262,758.3,01.16,0.508
2016-03-23 01:00:00,1911E-3,5C000400,-0724,0835,12058,024.4,045.3,0.262,758.3,01.16,0.508
2016-03-23 01:01:00,1742E-3,5C000400,-0724,0836,12150,024.4,045.3,0.261,758.3,01.16,0.508
2016-03-23 01:02:00,2018E-3,5C000400,-0724,0835,12121,024.4,045.3,0.262,758.3,01.16,0.508
2016-03-23 01:03:00,1937E-3,5C000400,-0724,0835,12032,024.4,045.3,0.261,758.2,01.16,0.508
2016-03-23 01:04:00,2049E-3,5C000400,-0724,0835,12254,024.4,045.3,0.262,758.2,01.16,0.508
2016-03-23 01:05:00,1978E-3,5C000400,-0724,0835,12200,024.4,045.3,0.261,758.3,01.16,0.508
2016-03-23 01:06:00,1918E-3,5C000400,-0724,0836,12211,024.4,045.3,0.262,758.3,01.16,0.508
2016-03-23 01:07:00,1981E-3,5C000400,-0724,0835,12158,024.4,045.3,0.262,758.2,01.16,0.508
2016-03-23 01:08:00,1999E-3,5C000400,-0724,0836,11912,024.4,045.3,0.262,758.3,01.16,0.508
2016-03-23 01:09:00,1998E-3,5C000400,-0724,0835,12132,024.4,045.3,0.262,758.3,01.16,0.508
2016-03-23 01:10:00,1951E-3,5C000400,-0724,0836,12102,024.4,045.3,0.262,758.3,01.16,0.508
2016-03-23 01:11:00,1984E-3,5C000400,-0724,0835,12158,024.4,045.3,0.262,758.2,01.16,0.508
2016-03-23 01:12:00,1966E-3,5C000400,-0724,0836,12222,024.4,045.3,0.261,758.2,01.16,0.508
2016-03-23 01:13:00,1941E-3,5C000400,-0724,0835,12073,024.4,045.3,0.262,758.2,01.16,0.508
2016-03-23 01:14:00,1948E-3,5C000400,-0724,0836,12272,024.4,045.3,0.261,758.2,01.16,0.508
2016-03-23 01:15:00,1889E-3,5C000400,-0724,0836,12254,024.4,045.3,0.262,758.2,01.16,0.508
2016-03-23 01:16:00,1848E-3,5C000400,-0724,0835,12028,024.4,045.3,0.262,758.1,01.16,0.508
2016-03-23 01:17:00,2074E-3,5C000400,-0724,0835,12104,024.4,045.3,0.262,758.1,01.16,0.508
2016-03-23 01:18:00,1904E-3,5C000400,-0724,0835,12121,024.4,045.3,0.262,758.1,01.16,0.508
2016-03-23 01:19:00,1892E-3,5C000400,-0724,0835,12008,024.4,045.3,0.261,758.1,01.16,0.508
2016-03-23 01:20:00,1997E-3,5C000400,-0724,0835,12059,024.4,045.3,0.262,758.1,01.16,0.508
2016-03-23 01:21:00,1977E-3,5C000400,-0724,0835,12125,024.5,045.3,0.261,758.0,01.16,0.508
2016-03-23 01:22:00,1953E-3,5C000400,-0724,0835,12151,024.5,045.3,0.262,758.0,01.16,0.508
2016-03-23 01:23:00,1956E-3,5C000400,-0724,0835,12248,024.4,045.3,0.261,758.0,01.16,0.508
2016-03-23 01:24:00,1960E-3,5C000400,-0724,0835,12133,024.5,045.3,0.262,758.0,01.16,0.508
2016-03-23 01:25:00,1994E-3,5C000400,-0724,0835,12222,024.5,045.4,0.262,757.9,01.16,0.508
2016-03-23 01:26:00,1896E-3,5C000400,-0724,0835,12210,024.5,045.3,0.262,758.0,01.16,0.508
2016-03-23 01:27:00,1942E-3,5C000400,-0724,0835,12263,024.5,045.4,0.262,757.9,01.16,0.508
2016-03-23 01:28:00,1958E-3,5C000400,-0724,0836,12095,024.5,045.3,0.261,757.9,01.16,0.508
2016-03-23 01:29:00,2120E-3,5C000400,-0724,0836,12122,024.5,045.3,0.262,757.9,01.16,0.508
2016-03-23 01:30:00,1914E-3,5C000400,-0724,0835,12225,024.5,045.3,0.261,757.9,01.16,0.508
2016-03-23 01:31:00,1995E-3,5C000400,-0724,0835,12150,024.5,045.3,0.262,757.9,01.16,0.508
2016-03-23 01:32:00,1919E-3,5C000400,-0724,0835,12089,024.5,045.3,0.261,757.9,01.16,0.508
2016-03-23 01:33:00,2015E-3,5C000400,-0724,0836,12192,024.5,045.3,0.262,757.9,01.16,0.508
2016-03-23 01:34:00,2074E-3,5C000400,-0724,0835,12194,024.5,045.3,0.261,757.9,01.16,0.508
2016-03-23 01:35:00,1974E-3,5C000400,-0724,0836,12191,024.5,045.3,0.261,757.9,01.16,0.508
2016-03-23 01:36:00,1974E-3,5C000400,-0724,0834,12087,024.5,045.3,0.262,757.9,01.16,0.508
2016-03-23 01:37:00,1974E-3,5C000400,-0724,0835,12212,024.5,045.3,0.261,757.8,01.16,0.508
2016-03-23 01:38:00,2002E-3,5C000400,-0724,0834,12147,024.5,045.3,0.262,757.8,01.16,0.508
2016-03-23 01:39:00,1819E-3,5C000400,-0724,0835,12118,024.5,045.3,0.261,757.8,01.16,0.508
2016-03-23 01:40:00,1899E-3,5C000400,-0724,0836,12094,024.5,045.3,0.262,757.8,01.16,0.508
2016-03-23 01:41:00,1917E-3,5C000400,-0724,0835,12115,024.5,045.3,0.261,757.8,01.16,0.508
2016-03-23 01:42:00,2020E-3,5C000400,-0724,0835,12098,024.5,045.3,0.262,757.7,01.16,0.508
2016-03-23 01:43:00,1979E-3,5C000400,-0724,0835,12174,024.5,045.3,0.262,757.7,01.16,0.508
2016-03-23 01:44:00,1894E-3,5C000400,-0724,0835,12145,024.6,045.3,0.261,757.8,01.16,0.508
2016-03-23 01:45:00,1999E-3,5C000400,-0724,0835,12248,024.5,045.3,0.262,757.7,01.16,0.508
2016-03-23 01:46:00,1845E-3,5C000400,-0724,0835,12003,024.6,045.3,0.261,757.8,01.16,0.508
2016-03-23 01:47:00,1971E-3,5C000400,-0724,0835,12183,024.5,045.3,0.261,757.8,01.16,0.508
2016-03-23 01:48:00,1980E-3,5C000400,-0724,0836,12113,024.6,045.3,0.261,757.8,01.16,0.508
2016-03-23 01:49:00,1993E-3,5C000400,-0724,0835,12053,024.6,045.3,0.261,757.8,01.16,0.508
2016-03-23 01:50:00,1887E-3,5C000400,-0724,0835,12230,024.5,045.3,0.262,757.8,01.16,0.508
2016-03-23 01:51:00,1968E-3,5C000400,-0724,0836,12120,024.5,045.3,0.261,757.8,01.16,0.508
2016-03-23 01:52:00,2071E-3,5C000400,-0724,0835,12225,024.6,045.3,0.261,757.8,01.16,0.508
2016-03-23 01:53:00,1877E-3,5C000400,-0724,0836,12290,024.6,045.3,0.261,757.8,01.16,0.508
2016-03-23 01:54:00,1968E-3,5C000400,-0724,0836,12171,024.6,045.3,0.261,757.7,01.16,0.508
2016-03-23 01:55:00,1876E-3,5C000400,-0724,0835,12043,024.6,045.3,0.262,757.7,01.16,0.508
2016-03-23 01:56:00,2040E-3,5C000400,-0724,0836,12017,024.6,045.3,0.261,757.7,01.16,0.508
2016-03-23 01:57:00,1938E-3,5C000400,-0724,0836,12073,024.6,045.3,0.261,757.7,01.16,0.508
2016-03-23 01:58:00,1929E-3,5C000400,-0724,0835,12238,024.6,045.3,0.261,757.7,01.16,0.508
2016-03-23 01:59:00,1809E-3,5C000400,-0724,0835,12141,024.6,045.3,0.261,757.8,01.16,0.508
2016-03-23 02:00:00,2025E-3,5C000400,-0724,0836,12016,024.6,045.3,0.261,757.8,01.16,0.508
2016-03-23 02:01:00,2044E-3,5C000400,-0724,0835,11995,024.6,045.3,0.261,757.7,01.16,0.508
2016-03-23 02:02:00,1935E-3,5C000400,-0724,0836,12210,024.6,045.3,0.262,757.7,01.16,0.508
2016-03-23 02:03:00,2097E-3,5C000400,-0724,0836,12115,024.6,045.3,0.261,757.7,01.16,0.508
2016-03-23 02:04:00,1928E-3,5C000400,-0724,0836,12149,024.6,045.3,0.261,757.7,01.16,0.508
2016-03-23 02:05:00,2143E-3,5C000400,-0724,0836,12177,024.6,045.3,0.261,757.7,01.16,0.508
2016-03-23 02:06:00,2000E-3,5C000400,-0724,0836,12066,024.6,045.3,0.261,757.6,01.16,0.508
2016-03-23 02:07:00,2010E-3,5C000400,-0724,0835,12120,024.6,045.3,0.261,757.6,01.16,0.508
2016-03-23 02:08:00,2026E-3,5C000400,-0724,0836,12247,024.6,045.3,0.261,757.6,01.16,0.508
2016-03-23 02:09:00,1983E-3,5C000400,-0724,0836,12195,024.6,045.3,0.261,757.6,01.16,0.508
2016-03-23 02:10:00,1947E-3,5C000400,-0724,0836,12081,024.6,045.3,0.261,757.7,01.16,0.508
2016-03-23 02:11:00,1982E-3,5C000400,-0724,0836,12191,024.6,045.3,0.261,757.6,01.16,0.508
2016-03-23 02:12:00,1955E-3,5C000400,-0724,0836,12206,024.6,045.3,0.261,757.6,01.16,0.508
2016-03-23 02:13:00,2107E-3,5C000400,-0724,0836,12121,024.7,045.3,0.261,757.6,01.16,0.508
2016-03-23 02:14:00,1990E-3,5C000400,-0724,0836,12160,024.6,045.3,0.261,757.6,01.16,0.508
2016-03-23 02:15:00,2005E-3,5C000400,-0724,0836,12096,024.6,045.3,0.261,757.6,01.16,0.508
2016-03-23 02:16:00,1800E-3,5C000400,-0724,0835,11996,024.6,045.3,0.261,757.6,01.16,0.508
2016-03-23 02:17:00,1884E-3,5C000400,-0724,0836,12151,024.6,045.3,0.261,757.6,01.16,0.508
2016-03-23 02:18:00,1887E-3,5C000400,-0724,0836,12190,024.6,045.3,0.261,757.6,01.16,0.508
2016-03-23 02:19:00,2107E-3,5C000400,-0724,0836,12273,024.6,045.3,0.261,757.6,01.16,0.508
2016-03-23 02:20:00,2016E-3,5C000400,-0724,0835,11963,024.7,045.3,0.261,757.5,01.16,0.508
2016-03-23 02:21:00,2048E-3,5C000400,-0724,0836,12094,024.7,045.3,0.261,757.6,01.16,0.508
2016-03-23 02:22:00,1912E-3,5C000400,-0724,0835,12107,024.7,045.4,0.261,757.5,01.16,0.508
2016-03-23 02:23:00,1977E-3,5C000400,-0724,0836,12180,024.7,045.4,0.261,757.5,01.16,0.508
2016-03-23 02:24:00,2107E-3,5C000400,-0724,0835,12205,024.7,045.3,0.261,757.5,01.16,0.508
2016-03-23 02:25:00,1967E-3,5C000400,-0724,0836,12077,024.7,045.3,0.261,757.5,01.16,0.508
2016-03-23 02:26:00,1909E-3,5C000400,-0724,0836,12188,024.7,045.3,0.261,757.5,01.16,0.508
2016-03-23 02:27:00,1929E-3,5C000400,-0724,0835,12187,024.7,045.3,0.261,757.5,01.16,0.508
2016-03-23 02:28:00,1894E-3,5C000400,-0724,0836,12067,024.7,045.3,0.261,757.5,01.16,0.508
2016-03-23 02:29:00,1903E-3,5C000400,-0724,0836,12140,024.7,045.3,0.261,757.5,01.16,0.508
2016-03-23 02:30:00,1975E-3,5C000400,-0724,0836,12090,024.7,045.3,0.261,757.5,01.16,0.508
2016-03-23 02:31:00,1875E-3,5C000400,-0724,0836,12218,024.7,045.3,0.261,757.4,01.16,0.508
2016-03-23 02:32:00,1949E-3,5C000400,-0724,0835,12109,024.7,045.3,0.261,757.4,01.16,0.508
2016-03-23 02:33:00,1868E-3,5C000400,-0724,0835,12185,024.7,045.3,0.261,757.5,01.16,0.508
2016-03-23 02:34:00,2063E-3,5C000400,-0724,0836,12010,024.7,045.3,0.261,757.4,01.16,0.508
2016-03-23 02:35:00,1820E-3,5C000400,-0724,0836,12174,024.8,045.4,0.261,757.4,01.16,0.508
2016-03-23 02:36:00,2013E-3,5C000400,-0724,0836,12085,024.8,045.3,0.261,757.4,01.16,0.508
2016-03-23 02:37:00,2013E-3,5C000400,-0724,0835,12174,024.8,045.3,0.261,757.4,01.16,0.508
2016-03-23 02:38:00,2046E-3,5C000400,-0724,0836,12188,024.8,045.3,0.261,757.4,01.16,0.508
2016-03-23 02:39:00,1907E-3,5C000400,-0724,0836,12168,024.8,045.3,0.261,757.5,01.16,0.508
2016-03-23 02:40:00,2011E-3,5C000400,-0724,0836,12100,024.8,045.3,0.261,757.4,01.16,0.508
2016-03-23 02:41:00,2001E-3,5C000400,-0724,0835,12040,024.8,045.3,0.261,757.4,01.16,0.508
2016-03-23 02:42:00,1875E-3,5C000400,-0724,0835,12127,024.8,045.3,0.261,757.4,01.16,0.508
2016-03-23 02:43:00,2054E-3,5C000400,-0724,0835,12120,024.8,045.3,0.261,757.3,01.16,0.508
2016-03-23 02:44:00,1939E-3,5C000400,-0724,0835,12070,024.8,045.3,0.261,757.3,01.16,0.508
2016-03-23 02:45:00,1895E-3,5C000400,-0724,0835,12044,024.8,045.3,0.261,757.3,01.16,0.508
2016-03-23 02:46:00,2037E-3,5C000400,-0724,0836,12110,024.8,045.3,0.261,757.4,01.16,0.508
2016-03-23 02:47:00,1978E-3,5C000400,-0724,0835,12021,024.8,045.3,0.261,757.4,01.16,0.508
2016-03-23 02:48:00,2041E-3,5C000400,-0724,0835,12046,024.8,045.3,0.261,757.4,01.16,0.508
2016-03-23 02:49:00,2022E-3,5C000400,-0724,0836,12159,024.8,045.3,0.261,757.4,01.16,0.508
2016-03-23 02:50:00,2042E-3,5C000400,-0724,0836,11965,024.8,045.3,0.261,757.4,01.16,0.508
2016-03-23 02:51:00,1982E-3,5C000400,-0724,0836,12293,024.8,045.3,0.261,757.4,01.16,0.508
2016-03-23 02:52:00,1894E-3,5C000400,-0724,0835,12002,024.8,045.3,0.261,757.4,01.16,0.508
2016-03-23 02:53:00,1942E-3,5C000400,-0724,0835,12196,024.8,045.3,0.260,757.3,01.16,0.508
2016-03-23 02:54:00,2053E-3,5C000400,-0724,0835,12151,024.8,045.3,0.261,757.3,01.16,0.508
2016-03-23 02:55:00,1994E-3,5C000400,-0724,0835,12152,024.8,045.3,0.261,757.3,01.16,0.508
2016-03-23 02:56:00,1924E-3,5C000400,-0724,0835,12146,024.8,045.3,0.261,757.3,01.16,0.508
2016-03-23 02:57:00,2097E-3,5C000400,-0724,0835,11999,024.8,045.3,0.261,757.4,01.16,0.508
2016-03-23 02:58:00,1936E-3,5C000400,-0724,0835,12051,024.8,045.4,0.260,757.3,01.16,0.508
2016-03-23 02:59:00,1920E-3,5C000400,-0724,0836,12247,024.8,045.3,0.261,757.3,01.16,0.508
2016-03-23 03:00:00,1903E-3,5C000400,-0724,0835,12175,024.9,045.3,0.261,757.3,01.16,0.508
2016-03-23 03:01:00,2028E-3,5C000400,-0724,0835,12146,024.8,045.3,0.261,757.4,01.16,0.508
2016-03-23 03:02:00,2043E-3,5C000400,-0724,0836,12080,024.9,045.3,0.261,757.3,01.16,0.508
2016-03-23 03:03:00,1923E-3,5C000400,-0724,0836,12143,024.9,045.3,0.260,757.4,01.16,0.508
2016-03-23 03:04:00,1945E-3,5C000400,-0724,0835,12129,024.9,045.4,0.261,757.3,01.16,0.508
2016-03-23 03:05:00,2062E-3,5C000400,-0724,0836,12262,024.8,045.3,0.261,757.3,01.16,0.508
2016-03-23 03:06:00,1987E-3,5C000400,-0724,0835,12102,024.9,045.3,0.261,757.3,01.16,0.508
2016-03-23 03:07:00,1949E-3,5C000400,-0724,0835,12119,024.9,045.3,0.261,757.3,01.16,0.508
2016-03-23 03:08:00,1909E-3,5C000400,-0724,0835,12246,024.9,045.3,0.260,757.4,01.16,0.508
2016-03-23 03:09:00,1918E-3,5C000400,-0724,0835,12220,024.9,045.3,0.261,757.3,01.16,0.508
2016-03-23 03:10:00,1916E-3,5C000400,-0724,0835,12193,024.9,045.3,0.261,757.2,01.16,0.508
2016-03-23 03:11:00,1944E-3,5C000400,-0724,0836,12157,024.9,045.3,0.261,757.1,01.16,0.508
2016-03-23 03:12:00,1946E-3,5C000400,-0724,0836,12076,024.9,045.3,0.261,757.1,01.16,0.508
2016-03-23 03:13:00,1886E-3,5C000400,-0724,0836,12119,024.9,045.3,0.260,757.2,01.16,0.508
2016-03-23 03:14:00,1933E-3,5C000400,-0724,0836,12135,024.9,045.3,0.261,757.1,01.16,0.508
2016-03-23 03:15:00,2021E-3,5C000400,-0724,0836,12032,024.9,045.3,0.261,757.1,01.16,0.508
2016-03-23 03:16:00,2040E-3,5C000400,-0724,0836,12167,024.9,045.3,0.260,757.1,01.16,0.508
2016-03-23 03:17:00,1958E-3,5C000400,-0724,0835,12103,024.9,045.4,0.261,757.1,01.16,0.508
2016-03-23 03:18:00,2045E-3,5C000400,-0724,0835,12163,024.9,045.3,0.260,757.1,01.16,0.508
2016-03-23 03:19:00,1860E-3,5C000400,-0724,0835,12190,024.9,045.3,0.261,757.1,01.16,0.508
2016-03-23 03:20:00,1899E-3,5C000400,-0724,0836,12038,025.0,045.3,0.261,757.1,01.16,0.508
2016-03-23 03:21:00,1907E-3,5C000400,-0724,0836,12094,024.9,045.3,0.260,757.1,01.16,0.508
2016-03-23 03:22:00,2004E-3,5C000400,-0724,0836,12049,025.0,045.3,0.261,757.0,01.16,0.508
2016-03-23 03:23:00,1914E-3,5C000400,-0724,0835,11968,024.9,045.3,0.260,757.0,01.16,0.508
2016-03-23 03:24:00,1899E-3,5C000400,-0724,0835,12150,025.0,045.3,0.261,757.0,01.16,0.508
2016-03-23 03:25:00,1921E-3,5C000400,-0724,0835,12216,025.0,045.3,0.261,756.9,01.16,0.508
2016-03-23 03:26:00,2120E-3,5C000400,-0724,0835,11937,025.0,045.3,0.260,757.0,01.16,0.508
2016-03-23 03:27:00,2042E-3,5C000400,-0724,0835,11911,025.0,045.3,0.261,756.9,01.16,0.508
2016-03-23 03:28:00,1875E-3,5C000400,-0724,0835,12004,025.0,045.3,0.260,757.0,01.16,0.508
2016-03-23 03:29:00,1955E-3,5C000400,-0724,0836,12202,025.0,045.3,0.261,757.0,01.16,0.508
2016-03-23 03:30:00,2055E-3,5C000400,-0724,0836,12073,025.0,045.3,0.261,757.0,01.16,0.508
2016-03-23 03:31:00,2002E-3,5C000400,-0724,0836,12101,025.0,045.3,0.260,756.9,01.16,0.508
2016-03-23 03:32:00,1974E-3,5C000400,-0724,0836,12215,025.0,045.3,0.261,756.9,01.16,0.508
2016-03-23 03:33:00,2052E-3,5C000400,-0724,0835,12204,025.0,045.4,0.261,756.9,01.16,0.508
2016-03-23 03:34:00,1910E-3,5C000400,-0724,0835,12183,025.0,045.3,0.260,756.9,01.16,0.508
2016-03-23 03:35:00,1925E-3,5C000400,-0724,0836,12240,025.0,045.3,0.261,756.9,01.16,0.508
2016-03-23 03:36:00,1943E-3,5C000400,-0724,0836,12205,025.0,045.3,0.260,756.9,01.16,0.508
2016-03-23 03:37:00,1982E-3,5C000400,-0724,0837,12219,025.0,045.3,0.260,756.9,01.16,0.508
2016-03-23 03:38:00,1911E-3,5C000400,-0724,0836,12163,025.0,045.3,0.261,756.9,01.16,0.508
2016-03-23 03:39:00,1842E-3,5C000400,-0724,0836,11980,025.0,045.3,0.260,756.9,01.16,0.508
2016-03-23 03:40:00,2034E-3,5C000400,-0724,0835,12087,025.0,045.3,0.261,756.9,01.16,0.508
2016-03-23 03:41:00,1866E-3,5C000400,-0724,0835,12029,025.0,045.3,0.261,756.9,01.16,0.508
2016-03-23 03:42:00,1947E-3,5C000400,-0724,0835,12203,025.0,045.4,0.261,756.9,01.16,0.508
2016-03-23 03:43:00,1787E-3,5C000400,-0724,0836,12207,025.0,045.3,0.261,756.9,01.16,0.508
2016-03-23 03:44:00,1922E-3,5C000400,-0724,0835,12183,025.0,045.3,0.260,756.9,01.16,0.508
2016-03-23 03:45:00,1984E-3,5C000400,-0724,0835,12210,025.0,045.4,0.261,756.9,01.16,0.508
2016-03-23 03:46:00,1937E-3,5C000400,-0724,0835,12196,025.0,045.4,0.260,756.9,01.16,0.508
2016-03-23 03:47:00,2058E-3,5C000400,-0724,0836,12136,025.0,045.3,0.260,756.8,01.16,0.508
2016-03-23 03:48:00,1945E-3,5C000400,-0724,0835,12121,025.0,045.3,0.261,756.8,01.16,0.508
2016-03-23 03:49:00,1930E-3,5C000400,-0724,0835,12247,025.0,045.3,0.260,756.8,01.16,0.508
2016-03-23 03:50:00,1874E-3,5C000400,-0724,0836,12173,025.0,045.3,0.260,756.8,01.16,0.508
2016-03-23 03:51:00,1989E-3,5C000400,-0724,0835,11980,025.0,045.3,0.261,756.8,01.16,0.508
2016-03-23 03:52:00,1854E-3,5C000400,-0724,0836,12256,025.0,045.3,0.260,756.8,01.16,0.508
2016-03-23 03:53:00,1919E-3,5C000400,-0724,0835,12105,025.0,045.3,0.261,756.8,01.16,0.508
2016-03-23 03:54:00,1958E-3,5C000400,-0724,0835,12184,025.0,045.3,0.260,756.7,01.16,0.508
2016-03-23 03:55:00,1876E-3,5C000400,-0724,0835,12077,025.0,045.3,0.260,756.8,01.16,0.508
2016-03-23 03:56:00,1852E-3,5C000400,-0724,0836,11995,025.1,045.3,0.260,756.7,01.16,0.508
2016-03-23 03:57:00,1920E-3,5C000400,-0724,0835,12131,025.1,045.3,0.260,756.7,01.16,0.508
2016-03-23 03:58:00,1935E-3,5C000400,-0724,0836,12264,025.1,045.3,0.260,756.7,01.16,0.508
2016-03-23 03:59:00,1946E-3,5C000400,-0724,0835,12167,025.1,045.3,0.260,756.6,01.16,0.508
2016-03-23 04:00:00,1907E-3,5C000400,-0724,0835,12129,025.1,045.3,0.260,756.7,01.16,0.508
2016-03-23 04:01:00,2046E-3,5C000400,-0724,0835,12153,025.1,045.3,0.261,756.6,01.16,0.508
2016-03-23 04:02:00,1939E-3,5C000400,-0724,0835,12191,025.1,045.3,0.260,756.6,01.16,0.508
2016-03-23 04:03:00,2074E-3,5C000400,-0724,0836,12154,025.1,045.3,0.260,756.6,01.16,0.508
2016-03-23 04:04:00,1939E-3,5C000400,-0724,0835,12128,025.1,045.4,0.261,756.6,01.16,0.508
2016-03-23 04:05:00,1871E-3,5C000400,-0724,0835,12073,025.1,045.4,0.260,756.6,01.16,0.508
2016-03-23 04:06:00,1838E-3,5C000400,-0724,0835,12207,025.1,045.4,0.260,756.5,01.16,0.508
2016-03-23 04:07:00,1842E-3,5C000400,-0724,0835,12006,025.1,045.3,0.260,756.5,01.16,0.508
2016-03-23 04:08:00,1940E-3,5C000400,-0724,0836,12023,025.1,045.4,0.260,756.5,01.16,0.508
2016-03-23 04:09:00,1954E-3,5C000400,-0724,0835,12292,025.1,045.3,0.260,756.5,01.16,0.508
2016-03-23 04:10:00,1895E-3,5C000400,-0724,0834,12137,025.1,045.4,0.260,756.5,01.16,0.508
2016-03-23 04:11:00,1983E-3,5C000400,-0724,0836,12141,025.1,045.3,0.260,756.5,01.16,0.508
2016-03-23 04:12:00,1955E-3,5C000400,-0724,0835,12149,025.1,045.3,0.260,756.5,01.16,0.508
2016-03-23 04:13:00,1933E-3,5C000400,-0724,0835,12156,025.1,045.3,0.260,756.5,01.16,0.508
2016-03-23 04:14:00,1883E-3,5C000400,-0724,0835,12200,025.1,045.4,0.260,756.5,01.16,0.508
2016-03-23 04:15:00,1889E-3,5C000400,-0724,0836,12294,025.1,045.3,0.261,756.5,01.16,0.508
2016-03-23 04:16:00,2002E-3,5C000400,-0724,0836,12144,025.1,045.3,0.260,756.5,01.16,0.508
2016-03-23 04:17:00,1931E-3,5C000400,-0724,0836,12320,025.1,045.3,0.260,756.5,01.16,0.508
2016-03-23 04:18:00,1909E-3,5C000400,-0724,0835,12045,025.1,045.3,0.261,756.5,01.16,0.508
2016-03-23 04:19:00,1894E-3,5C000400,-0724,0836,12160,025.1,045.3,0.260,756.6,01.16,0.508
2016-03-23 04:20:00,2096E-3,5C000400,-0724,0835,12201,025.1,045.3,0.260,756.5,01.16,0.508